Simultaneous Nadir Overpasses (SNOs) Predictions

Prediction of SNOs between GOES-17 and NOAA-20 Satellite Orbit:

Table of predicted SNOs for the next 14.0 days since TLE Epoch: 2/11/2023
Index Date Time (GOES-17) GOES-17 Lat,Lon NOAA-20 Lat,Lon Distance(km) Time Diff (sec)
1 02/11/2023 08:13:54 -0.01,-103.30 -0.35,-101.92 158.20 80
2 02/13/2023 20:14:17 0.02,-101.35 -0.29,-102.58 140.76 80
3 02/14/2023 19:58:09 0.02,-100.57 0.59, -98.01 291.28 80
4 02/16/2023 08:17:11 -0.03, -99.35 0.84,-103.22 440.64 80
5 02/17/2023 07:58:24 -0.03, -98.57 -0.04, -98.66 9.37 80
6 02/18/2023 07:42:16 -0.03, -97.79 -0.87, -94.08 423.10 80
7 02/19/2023 20:01:27 0.04, -96.61 -0.56, -99.32 308.45 80
8 02/20/2023 19:45:18 0.04, -95.84 0.28, -94.75 124.02 80
9 02/23/2023 07:45:32 -0.04, -93.86 0.31, -95.38 173.46 80
10 02/24/2023 07:29:24 -0.04, -93.08 -0.53, -90.80 259.36 80
